When you browse on this site, cookies collect data to enhance your experience and personalize the content and advertising you see.
Visit our Privacy Policy to learn more. By continuing to use the site, you agree to this use of cookies and data.
  • In Slovakia
  • List of Countries
  • For 7 days
  • Water Temperature
  • Satellite Maps
  • Weather Map
  • Weather Widgets
  • user-avatar
    Login

    Hourly Weather Sharan

    Today, 20 January, Sunday

    Time Temperature Precipitation Wind Pressure Humidity
    00:00 +1°C° 0 mm 3 mps 584 mmHg 78%
    01:00 +1°C° 0 mm 3 mps 584 mmHg 77%
    02:00 +1°C° 0 mm 3 mps 584 mmHg 77%
    03:00 +1°C° 0 mm 3 mps 583 mmHg 76%
    04:00 0°C° 0 mm 3 mps 583 mmHg 75%
    05:00 -1°C° 0 mm 6 mps 583 mmHg 66%
    06:00 -1°C° 0.3 mm 6 mps 583 mmHg 67%
    07:00 0°C° 0.3 mm 5 mps 583 mmHg 69%
    08:00 0°C° 0.3 mm 5 mps 583 mmHg 70%
    09:00 0°C° 0.6 mm 5 mps 583 mmHg 72%
    10:00 0°C° 0.6 mm 5 mps 583 mmHg 74%
    11:00 0°C° 0.6 mm 5 mps 583 mmHg 75%
    12:00 +1°C° 0.2 mm 5 mps 583 mmHg 72%
    13:00 +2°C° 0.2 mm 5 mps 582 mmHg 68%
    14:00 +2°C° 0.2 mm 5 mps 582 mmHg 65%
    15:00 +2°C° 0.3 mm 5 mps 582 mmHg 65%
    16:00 +2°C° 0.3 mm 5 mps 582 mmHg 65%
    17:00 +1°C° 0.3 mm 4 mps 582 mmHg 66%
    18:00 0°C° 0.1 mm 4 mps 582 mmHg 65%
    19:00 0°C° 0.1 mm 3 mps 582 mmHg 64%
    20:00 -1°C° 0.1 mm 3 mps 582 mmHg 63%
    21:00 -2°C° 0 mm 2 mps 582 mmHg 62%
    22:00 -2°C° 0 mm 2 mps 582 mmHg 61%
    23:00 -1°C° 0 mm 1 mps 581 mmHg 61%

    Tomorrow, 21 January, Monday

    Time Temperature Precipitation Wind Pressure Humidity
    00:00 -1°C° 0 mm 1 mps 581 mmHg 59%
    01:00 -1°C° 0 mm 1 mps 582 mmHg 58%
    02:00 -2°C° 0 mm 1 mps 582 mmHg 56%
    03:00 -2°C° 0 mm 1 mps 582 mmHg 55%
    04:00 -2°C° 0 mm 1 mps 581 mmHg 54%
    05:00 -3°C° 0 mm 1 mps 581 mmHg 53%
    06:00 -5°C° 0 mm 2 mps 582 mmHg 53%
    07:00 -5°C° 0 mm 2 mps 582 mmHg 53%
    08:00 -6°C° 0 mm 3 mps 582 mmHg 53%
    09:00 -5°C° 0 mm 3 mps 582 mmHg 49%
    10:00 -4°C° 0 mm 3 mps 582 mmHg 45%
    11:00 -2°C° 0 mm 3 mps 582 mmHg 42%
    12:00 -1°C° 0 mm 3 mps 582 mmHg 41%
    13:00 -1°C° 0 mm 3 mps 581 mmHg 40%
    14:00 0°C° 0 mm 3 mps 581 mmHg 40%
    15:00 -1°C° 0 mm 3 mps 580 mmHg 43%
    16:00 -1°C° 0 mm 3 mps 580 mmHg 47%
    17:00 -1°C° 0 mm 3 mps 580 mmHg 51%
    18:00 -2°C° 0 mm 3 mps 580 mmHg 56%
    19:00 -3°C° 0 mm 2 mps 580 mmHg 61%
    20:00 -4°C° 0 mm 2 mps 580 mmHg 67%
    21:00 -5°C° 0 mm 2 mps 580 mmHg 66%
    22:00 -5°C° 0 mm 2 mps 580 mmHg 66%
    23:00 -3°C° 0 mm 1 mps 580 mmHg 65%

    Day after tomorrow, 22 January, Tuesday

    Time Temperature Precipitation Wind Pressure Humidity
    00:00 -3°C° 0 mm 1 mps 580 mmHg 64%
    01:00 -4°C° 0 mm 1 mps 580 mmHg 64%
    02:00 -4°C° 0 mm 1 mps 580 mmHg 63%
    03:00 -4°C° 0 mm 1 mps 579 mmHg 63%
    04:00 -4°C° 0 mm 1 mps 579 mmHg 62%
    05:00 -6°C° 0 mm 1 mps 579 mmHg 61%
    06:00 -6°C° 0 mm 1 mps 579 mmHg 59%
    07:00 -6°C° 0 mm 1 mps 579 mmHg 57%
    08:00 -6°C° 0 mm 1 mps 580 mmHg 55%
    09:00 -4°C° 0 mm 1 mps 580 mmHg 49%
    10:00 -3°C° 0 mm 1 mps 580 mmHg 43%
    11:00 -2°C° 0 mm 1 mps 580 mmHg 37%
    12:00 -1°C° 0 mm 1 mps 580 mmHg 35%
    13:00 0°C° 0 mm 1 mps 579 mmHg 34%
    14:00 0°C° 0 mm 1 mps 579 mmHg 32%
    15:00 0°C° 0 mm 1 mps 579 mmHg 35%
    16:00 0°C° 0 mm 1 mps 579 mmHg 37%
    17:00 0°C° 0 mm 1 mps 579 mmHg 39%
    18:00 -1°C° 0 mm 1 mps 579 mmHg 42%
    19:00 -2°C° 0 mm 1 mps 580 mmHg 45%
    20:00 -4°C° 0 mm 0 mps 580 mmHg 48%
    21:00 -4°C° 0 mm 0 mps 581 mmHg 48%
    22:00 -4°C° 0 mm 0 mps 581 mmHg 49%
    23:00 -4°C° 0 mm 0 mps 581 mmHg 49%

    23 January, Wednesday

    Time Temperature Precipitation Wind Pressure Humidity
    00:00 -3°C° 0 mm 1 mps 582 mmHg 51%
    01:00 -3°C° 0 mm 1 mps 582 mmHg 52%
    02:00 -4°C° 0 mm 1 mps 582 mmHg 53%
    03:00 -4°C° 0 mm 1 mps 582 mmHg 53%
    04:00 -4°C° 0 mm 1 mps 582 mmHg 53%
    05:00 -4°C° 0 mm 1 mps 582 mmHg 53%
    06:00 -4°C° 0 mm 1 mps 582 mmHg 51%
    07:00 -6°C° 0 mm 2 mps 582 mmHg 50%
    08:00 -6°C° 0 mm 2 mps 583 mmHg 49%
    09:00 -5°C° 0 mm 2 mps 583 mmHg 46%
    10:00 -4°C° 0 mm 2 mps 584 mmHg 42%
    11:00 -3°C° 0 mm 2 mps 584 mmHg 38%
    12:00 0°C° 0 mm 1 mps 584 mmHg 37%
    13:00 0°C° 0 mm 1 mps 584 mmHg 36%
    14:00 +1°C° 0 mm 1 mps 583 mmHg 34%
    15:00 +1°C° 0 mm 1 mps 583 mmHg 36%
    16:00 -1°C° 0 mm 2 mps 583 mmHg 38%
    17:00 -2°C° 0 mm 2 mps 583 mmHg 40%
    18:00 -3°C° 0 mm 2 mps 583 mmHg 44%
    19:00 -3°C° 0 mm 2 mps 583 mmHg 48%
    20:00 -4°C° 0 mm 2 mps 584 mmHg 52%
    21:00 -5°C° 0 mm 2 mps 584 mmHg 53%
    22:00 -5°C° 0 mm 2 mps 584 mmHg 55%
    23:00 -5°C° 0 mm 2 mps 584 mmHg 56%

    24 January, Thursday

    Time Temperature Precipitation Wind Pressure Humidity
    00:00 -5°C° 0 mm 2 mps 584 mmHg 57%
    01:00 -5°C° 0 mm 2 mps 584 mmHg 58%
    02:00 -6°C° 0 mm 2 mps 584 mmHg 59%
    03:00 -6°C° 0 mm 2 mps 584 mmHg 60%
    04:00 -6°C° 0 mm 2 mps 584 mmHg 60%
    05:00 -6°C° 0 mm 2 mps 583 mmHg 61%
    06:00 -7°C° 0 mm 2 mps 584 mmHg 60%
    07:00 -7°C° 0 mm 2 mps 584 mmHg 59%
    08:00 -7°C° 0 mm 2 mps 584 mmHg 58%
    09:00 -6°C° 0 mm 2 mps 585 mmHg 53%
    10:00 -5°C° 0 mm 2 mps 585 mmHg 47%
    11:00 -4°C° 0 mm 2 mps 586 mmHg 42%
    12:00 -3°C° 0 mm 2 mps 585 mmHg 40%
    13:00 -2°C° 0 mm 2 mps 585 mmHg 38%
    14:00 -2°C° 0 mm 2 mps 584 mmHg 36%
    15:00 -2°C° 0 mm 3 mps 584 mmHg 39%
    16:00 -2°C° 0 mm 3 mps 584 mmHg 41%
    17:00 -2°C° 0 mm 3 mps 584 mmHg 43%
    18:00 -4°C° 0 mm 3 mps 585 mmHg 48%
    19:00 -5°C° 0 mm 3 mps 585 mmHg 53%
    20:00 -6°C° 0 mm 3 mps 585 mmHg 57%
    21:00 -6°C° 0 mm 3 mps 585 mmHg 58%
    22:00 -5°C° 0 mm 2 mps 585 mmHg 58%
    23:00 -6°C° 0 mm 2 mps 585 mmHg 58%

    25 January, Friday

    Time Temperature Precipitation Wind Pressure Humidity
    00:00 -6°C° 0 mm 2 mps 585 mmHg 57%
    01:00 -6°C° 0 mm 2 mps 585 mmHg 56%
    02:00 -6°C° 0 mm 2 mps 585 mmHg 54%
    03:00 -7°C° 0 mm 2 mps 584 mmHg 51%
    04:00 -7°C° 0 mm 2 mps 584 mmHg 49%
    05:00 -7°C° 0 mm 2 mps 584 mmHg 46%
    06:00 -8°C° 0 mm 2 mps 584 mmHg 45%
    07:00 -8°C° 0 mm 2 mps 584 mmHg 45%
    08:00 -8°C° 0 mm 2 mps 584 mmHg 44%
    09:00 -7°C° 0 mm 2 mps 584 mmHg 41%
    10:00 -5°C° 0 mm 2 mps 585 mmHg 38%
    11:00 -4°C° 0 mm 2 mps 585 mmHg 35%
    12:00 -3°C° 0 mm 2 mps 584 mmHg 33%
    13:00 -2°C° 0 mm 2 mps 584 mmHg 30%
    14:00 -2°C° 0 mm 2 mps 584 mmHg 28%
    15:00 -2°C° 0 mm 2 mps 584 mmHg 30%
    16:00 -2°C° 0 mm 2 mps 584 mmHg 31%
    17:00 -2°C° 0 mm 2 mps 584 mmHg 32%
    18:00 -3°C° 0 mm 2 mps 584 mmHg 36%
    19:00 -4°C° 0 mm 2 mps 584 mmHg 40%
    20:00 -5°C° 0 mm 2 mps 584 mmHg 43%
    21:00 -3°C° 0 mm 1 mps 585 mmHg 45%
    22:00 -3°C° 0 mm 1 mps 585 mmHg 46%
    23:00 -3°C° 0 mm 1 mps 585 mmHg 47%
    Show more